ONEWEB-0250 (48968 NORAD) Tracking and Keplerian Element Data

This shows tracking and keplerian element data for the satellite.

Feedback or suggestion? Click here.




ElementValue
Catalog48968
NameONEWEB-0250
Epoch Orbit567
Epoch Day211.25001157
Epoch Year2021
RAAN227.4216
Inclination87.4541
Eccentricity0.0008705
Argument of Perigee141.6571
Mean Anonmoly214.5401
Mean Motion14.96590115
Decay Rate-0.01474131
L11 48968U 21060B 21211.25001157 -.01474131 00000-0 -14209+0 0 9990
L22 48968 87.4541 227.4216 0008705 141.6571 214.5401 14.96590115 5671

Live tracking and technical data element details for ONEWEB-0250 (NORAD 48968). ONEWEB-0250 can be tracked NOW for your location showing map with azimuth and elevation plus other details from your city location.

Track the satellite on the map from your city or location and see movement details for azimuth, elevation, latitude, longitude, range, height, and movement on the map or in text.







IsCatalogInMostPopularTable: catalog: 48968, numindb: 4
Update: records affected: 1



GetName: 48968 ONEWEB-0250

Hit Count: updated at: Sat, 31 Jul 2021 14:29:05 GMT